Location: Luxembourg
(49.6117°N, 6.1300°E)
Time: 00:45:46
(UTC+01:00)

BlueWalker 3 - Visible Passes

Search period start: 01 December 2023 00:00
Search period end: 11 December 2023 00:00
Orbit: 489 x 504 km, 53.2° (Epoch: 29 November)

Date Brightness Start Highest point End Pass type
(mag) Time Alt. Az. Time Alt. Az. Time Alt. Az.
01 Dec 3.0 05:24:08 44° E 05:24:08 44° E 05:26:52 10° ESE visible
01 Dec 3.0 06:58:41 16° W 07:01:13 32° SW 07:04:38 10° SSE visible
02 Dec 4.1 05:02:34 24° E 05:02:34 24° E 05:04:14 10° ESE visible
02 Dec 2.9 06:37:08 24° W 06:38:36 32° SW 06:42:02 10° SSE visible
03 Dec 5.0 04:41:03 14° ESE 04:41:03 14° ESE 04:41:37 10° ESE visible
03 Dec 2.8 06:15:37 32° SW 06:15:59 32° SW 06:19:25 10° SSE visible
04 Dec 3.2 05:54:09 29° SSW 05:54:09 29° SSW 05:56:47 10° SSE visible
05 Dec 4.0 05:32:43 19° SSE 05:32:43 19° SSE 05:34:08 10° SSE visible
06 Dec 4.8 05:11:22 11° SSE 05:11:22 11° SSE 05:11:28 10° SSE visible
